Dutch Harbor, AK

3:43 AM AKST on November 21, 2017 (GMT -0900)
Unalaska

Weather History for PADU - October, 2013

Change the Weather History Date:

Saturday, October 12, 2013

  Actual Average Record
Temperature  
Mean Temperature 44 °F -  
Max Temperature 46 °F 48 °F 57 °F (1986)
Min Temperature 42 °F 35 °F 18 °F (1992)
Degree Days  
Heating Degree Days 22    
Moisture  
Dew Point 37 °F    
Average Humidity 77    
Maximum Humidity 85    
Minimum Humidity 71    
Precipitation  
Precipitation 0.53 in - - ()
Sea Level Pressure  
Sea Level Pressure 29.11 in    
Wind  
Wind Speed 22 mph (West)    
Max Wind Speed 39 mph    
Max Gust Speed 46 mph    
Visibility 7 miles    
Events Rain    
Averages and records for this station are not official NWS values.
T = Trace of Precipitation, MM = Missing Value Source: NWS Daily Summary

Daily Weather History Graph

Daily Weather History Graph

Search for Another Location

Airport or City:

Trip Planner

Search our weather history database for the weather conditions in past years. The results will help you decide how hot, cold, wet, or windy it might be!

Date:

Astronomy

Oct. 12, 2013 Rise Set
Actual Time 9:29 AM AKDT 8:14 PM AKDT
Civil Twilight 8:53 AM AKDT 8:50 PM AKDT
Nautical Twilight 8:12 AM AKDT 9:30 PM AKDT
Astronomical Twilight 7:31 AM AKDT 10:12 PM AKDT
Moon 5:22 PM AKDT (10/12) 1:52 AM AKDT (10/12)
Length of Visible Light 11h 56m
Length of Day
10h 45m
First Quarter, 60% of the Moon is Illuminated
Oct 12
First Quarter
Oct 18
Full
Oct 26
Last Quarter
Nov 3
New
Nov 9
First Quarter

Hourly Weather History & Observations

Time (AKDT) Temp. Windchill Dew Point Humidity Pressure Visibility Wind Dir Wind Speed Gust Speed Precip Events Conditions
12:56 AM 44.1 °F 34.6 °F 36.0 °F 73% 28.99 in 10.0 mi WSW 26.5 mph 38.0 mph 0.01 in Rain Light Rain
1:23 AM 42.8 °F 34.8 °F 35.6 °F 76% 28.98 in 10.0 mi SSW 17.3 mph - 0.00 in Rain Light Rain
1:56 AM 44.1 °F 36.8 °F 36.0 °F 73% 29.00 in 10.0 mi SW 16.1 mph 20.7 mph 0.00 in Rain Light Rain
2:11 AM 44.6 °F 36.4 °F 35.6 °F 71% 28.98 in 10.0 mi WSW 20.7 mph 25.3 mph 0.00 in Rain Light Rain
2:56 AM 43.0 °F 34.8 °F 37.0 °F 80% 28.99 in 10.0 mi SSW 18.4 mph - 0.00 in Rain Light Rain
3:32 AM 42.8 °F 34.8 °F 37.4 °F 81% 28.97 in 10.0 mi SSW 17.3 mph 23.0 mph 0.00 in Rain Light Rain
3:56 AM 42.1 °F 33.9 °F 36.0 °F 79% 28.99 in 10.0 mi SSW 17.3 mph - 0.00 in Rain Light Rain
4:56 AM 44.1 °F 35.2 °F 36.0 °F 73% 28.97 in 10.0 mi SSW 23.0 mph 31.1 mph 0.01 in Rain Light Rain
5:19 AM 44.6 °F 36.6 °F 35.6 °F 71% 28.96 in 10.0 mi SSW 19.6 mph 34.5 mph 0.00 in Rain Light Rain
5:56 AM 45.0 °F 36.6 °F 36.0 °F 71% 28.97 in 10.0 mi SSW 21.9 mph 31.1 mph 0.00 in Rain Light Rain
6:31 AM 44.6 °F 38.4 °F 35.6 °F 71% 28.95 in 10.0 mi SSW 12.7 mph 32.2 mph 0.00 in Rain Light Rain
6:56 AM 44.1 °F 37.1 °F 36.0 °F 73% 28.98 in 10.0 mi SW 15.0 mph 25.3 mph 0.00 in Rain Light Rain
7:14 AM 44.6 °F 38.8 °F 35.6 °F 71% 28.96 in 10.0 mi West 11.5 mph - 0.01 in Rain Light Rain
7:56 AM 44.1 °F 38.1 °F 37.0 °F 76% 29.00 in 10.0 mi West 11.5 mph - 0.02 in Rain Light Rain
8:56 AM 43.0 °F 38.2 °F 37.0 °F 80% 29.01 in 10.0 mi West 8.1 mph - 0.04 in Rain Light Rain
9:06 AM 44.6 °F 38.8 °F 37.4 °F 76% 29.00 in 8.0 mi West 11.5 mph - 0.00 in Rain Light Rain
9:38 AM 42.8 °F 34.0 °F 37.4 °F 81% 29.01 in 6.0 mi West 20.7 mph - 0.02 in Rain Light Rain
9:56 AM 44.1 °F 35.4 °F 37.9 °F 79% 29.04 in 6.0 mi West 21.9 mph 28.8 mph 0.02 in Rain Light Rain
10:08 AM 44.6 °F 37.2 °F 37.4 °F 76% 29.03 in 6.0 mi West 17.3 mph 23.0 mph 0.01 in Rain Light Rain
10:56 AM 43.0 °F 34.2 °F 37.9 °F 82% 29.07 in 6.0 mi West 20.7 mph - 0.03 in Rain Light Rain
11:56 AM 43.0 °F 34.2 °F 37.9 °F 82% 29.10 in 5.0 mi WNW 20.7 mph 26.5 mph 0.03 in Rain Light Rain
11:59 AM 42.8 °F 35.4 °F 37.4 °F 81% 29.08 in 5.0 mi West 15.0 mph 26.5 mph 0.00 in Rain Light Rain
12:56 PM 44.1 °F 34.8 °F 37.9 °F 79% 29.12 in 5.0 mi West 25.3 mph 35.7 mph 0.03 in Rain Light Rain
1:08 PM 44.6 °F 36.4 °F 37.4 °F 76% 29.11 in 5.0 mi West 20.7 mph 34.5 mph 0.01 in Rain Light Rain
1:10 PM 44.6 °F 35.7 °F 37.4 °F 76% 29.11 in 6.0 mi West 24.2 mph 29.9 mph 0.01 in Rain Light Rain
1:56 PM 44.1 °F 35.9 °F 37.9 °F 79% 29.14 in 6.0 mi West 19.6 mph 26.5 mph 0.03 in Rain Light Rain
2:40 PM 44.6 °F 35.7 °F 37.4 °F 76% 29.14 in 5.0 mi West 24.2 mph 40.3 mph 0.03 in Rain Light Rain
2:43 PM 44.6 °F 34.6 °F 37.4 °F 76% 29.14 in 5.0 mi West 31.1 mph 40.3 mph 0.03 in Rain Light Rain
2:56 PM 44.1 °F 35.2 °F 37.9 °F 79% 29.16 in 5.0 mi West 23.0 mph 32.2 mph 0.03 in Rain Light Rain
2:58 PM 44.6 °F 35.7 °F 37.4 °F 76% 29.14 in 7.0 mi West 24.2 mph 32.2 mph 0.00 in Rain Light Rain
3:56 PM 44.1 °F 33.8 °F 37.0 °F 76% 29.17 in 8.0 mi West 31.1 mph 35.7 mph 0.03 in Rain Light Rain
4:08 PM 44.6 °F 35.5 °F 37.4 °F 76% 29.16 in 6.0 mi West 25.3 mph 33.4 mph 0.00 in Rain Light Rain
4:23 PM 44.6 °F 35.7 °F 37.4 °F 76% 29.16 in 6.0 mi West 24.2 mph 33.4 mph 0.01 in Rain Light Rain
4:56 PM 44.1 °F 34.0 °F 37.0 °F 76% 29.19 in 6.0 mi West 29.9 mph 35.7 mph 0.02 in Rain Light Rain
5:02 PM 44.6 °F 34.7 °F 37.4 °F 76% 29.17 in 7.0 mi West 29.9 mph 36.8 mph 0.01 in Rain Light Rain
5:46 PM 44.6 °F 35.5 °F 37.4 °F 76% 29.18 in 8.0 mi West 25.3 mph 38.0 mph 0.02 in Rain Light Rain
5:56 PM 44.1 °F 33.7 °F 37.0 °F 76% 29.20 in 8.0 mi West 32.2 mph 46.0 mph 0.03 in Rain Light Rain
5:58 PM 44.6 °F 33.8 °F 37.4 °F 76% 29.19 in 5.0 mi West 36.8 mph 46.0 mph 0.00 in Rain Light Rain
6:00 PM 44.6 °F 34.1 °F 37.4 °F 76% 29.19 in 5.0 mi West 34.5 mph 46.0 mph 0.01 in Rain Light Rain
6:56 PM 45.0 °F 34.9 °F 37.0 °F 74% 29.22 in 6.0 mi West 32.2 mph 46.0 mph 0.03 in Rain Light Rain
7:33 PM 44.6 °F 35.1 °F 37.4 °F 76% 29.20 in 5.0 mi West 27.6 mph 42.6 mph 0.00 in Rain Light Rain
7:56 PM 44.1 °F 34.6 °F 37.9 °F 79% 29.23 in 5.0 mi West 26.5 mph 38.0 mph 0.01 in Rain Light Rain
8:08 PM 44.6 °F 34.7 °F 39.2 °F 81% 29.21 in 4.0 mi West 29.9 mph 38.0 mph 0.00 in Rain Light Rain
8:46 PM 44.6 °F 34.6 °F 39.2 °F 81% 29.23 in 8.0 mi West 31.1 mph 43.7 mph 0.01 in Rain Light Rain
8:56 PM 45.0 °F 34.6 °F 39.0 °F 80% 29.24 in 9.0 mi West 34.5 mph 39.1 mph 0.01 in Rain Light Rain
9:56 PM 45.0 °F 36.0 °F 39.0 °F 80% 29.27 in 7.0 mi West 25.3 mph 39.1 mph 0.00 in Rain Light Rain
10:56 PM 44.1 °F 33.5 °F 39.9 °F 85% 29.30 in 3.0 mi West 33.4 mph 43.7 mph 0.03 in Rain Light Rain
11:27 PM 44.6 °F 33.5 °F 39.2 °F 81% 29.31 in 2.5 mi WNW 39.1 mph 44.9 mph 0.06 in Rain Light Rain
11:56 PM 45.0 °F 35.2 °F 39.9 °F 82% 29.35 in 2.5 mi WNW 29.9 mph 44.9 mph 0.12 in Rain Light Rain